Location: Kalisz
(51.7575°N, 18.0800°E)
Time: 02:12:36
(UTC+02:00)

ISS - Visible Passes

Search period start: 23 September 2018 00:00
Search period end: 03 October 2018 00:00
Orbit: 403 x 408 km, 51.6° (Epoch: 23 September)

Date Brightness Start Highest point End Pass type
(mag) Time Alt. Az. Time Alt. Az. Time Alt. Az.
23 Sep -1.8 19:37:17 10° SSE 19:38:50 13° SE 19:39:39 12° ESE visible
23 Sep -1.3 21:11:34 10° SW 21:12:20 16° SW 21:12:20 16° SW visible
24 Sep -3.0 20:19:58 10° SW 20:22:54 33° SSE 20:22:54 33° SSE visible
25 Sep -2.4 19:28:33 10° SSW 19:31:13 23° SSE 19:33:18 13° E visible
25 Sep -2.3 21:04:06 10° WSW 21:06:00 31° WSW 21:06:00 31° WSW visible
26 Sep -3.6 20:12:17 10° WSW 20:15:30 53° SSE 20:16:15 41° ESE visible
26 Sep -0.6 21:48:38 10° W 21:48:56 12° W 21:48:56 12° W visible
27 Sep -3.1 19:20:35 10° SW 19:23:40 38° SSE 19:26:26 12° E visible
27 Sep -2.8 20:56:42 10° W 20:59:06 45° W 20:59:06 45° W visible
28 Sep -3.9 20:04:46 10° WSW 20:08:04 75° SSE 20:09:12 38° E visible
28 Sep -0.8 21:41:16 10° W 21:41:52 14° W 21:41:52 14° W visible
29 Sep -3.6 19:12:54 10° WSW 19:16:09 59° SSE 19:19:14 11° E visible
29 Sep -3.1 20:49:18 10° W 20:51:54 52° W 20:51:54 52° W visible
30 Sep -3.9 19:57:20 10° W 20:00:39 89° S 20:01:54 35° E visible
30 Sep -0.8 21:33:51 10° W 21:34:34 16° W 21:34:34 16° W visible
01 Oct -3.8 19:05:21 10° WSW 19:08:40 80° S 19:11:53 11° E visible
01 Oct -3.2 20:41:51 10° W 20:44:32 55° W 20:44:32 55° W visible
02 Oct -3.9 19:49:52 10° W 19:53:10 89° S 19:54:30 34° E visible
02 Oct -0.9 21:26:24 10° W 21:27:09 16° W 21:27:09 16° W visible
